Regional Weather Roundup
Issued by NWS

Home | Current Version | Previous Version | Graphics & Text | Print | Product List | Glossary Off
Versions: 1 2 3 4 5 6 7 8 9 10 11 12 13 14 15 16 17 18 19 20 21 22 23 24 25 26 27 28 29 30 31 32 33 34 35 36 37 38 39 40 41 42 43 44 45 46 47 48 49 50

000
ASUS43 KMPX 021310
RWRMN
WEATHER ROUNDUP FOR MINNESOTA
NATIONAL WEATHER SERVICE TWIN CITIES/CHANHASSEN MN
800 AM CDT MON MAY 02 2016


NOTE: "FAIR" INDICATES FEW OR NO CLOUDS BELOW 12,000 FEET WITH NO
SIGNIFICANT WEATHER AND/OR OBSTRUCTIONS TO VISIBILITY. N/A MEANS
CURRENT SKY AND/OR WEATHER CONDITIONS ARE NOT AVAILABLE.

MNZ060>063-068>070-021400-
   Twin Cities Metro

CITY           SKY/WX    TMP DP  RH WIND       PRES   REMARKS
TWIN CITIES    SUNNY     48  37  65 CALM      30.12S
ST PAUL        SUNNY     46  38  73 CALM      30.13S
CRYSTAL        MOSUNNY   46  36  68 CALM      30.11S
BLAINE         SUNNY     46  39  76 CALM      30.12R
EDEN PRAIRIE   MOSUNNY   49  37  63 CALM      30.11S
SOUTH ST PAUL  SUNNY     47  36  66 CALM      30.12S
LAKE ELMO      FAIR      45  37  76 CALM      30.12S
$$
MNZ001>005-007-008-013>017-022>024-027-028-021400-
   Northwest Minnesota

CITY           SKY/WX    TMP DP  RH WIND       PRES   REMARKS
BEMIDJI        SUNNY     43  34  72 CALM      30.08F
HALLOCK        CLOUDY    48  30  49 SE9       30.03F
ROSEAU         MOSUNNY   48  34  57 CALM      30.07S
WARROAD        CLOUDY    48  36  61 CALM      30.08S
THIEF RVR FALL MOSUNNY   45  34  65 E5        30.07S
CROOKSTON      SUNNY     48  34  57 S5        30.06F
FOSSTON        MOSUNNY   48  41  76 SE5       30.07F
DETROIT LAKES  MOSUNNY   46  39  76 SE3       30.08F
MOORHEAD       MOSUNNY   46  34  61 S7        30.07F
PARK RAPIDS    CLOUDY    43  33  68 SE3       30.09S
MAHNOMEN       FAIR      49  35  60 SE6       30.07S
$$
MNZ006-009>011-018-025>026-021400-
   North Central Minnesota

CITY           SKY/WX    TMP DP  RH WIND       PRES   REMARKS
BAUDETTE       SUNNY     44  33  65 E3        30.08F
FLAG ISLAND    MOSUNNY   45  37  76 SE5       30.08S
INTL FALLS     SUNNY     43  34  70 SE3       30.10S
WASKISH        SUNNY     45  36  70 CALM      30.08F
BIG FORK       SUNNY     45  37  76 CALM      30.09F
LONGVILLE      SUNNY     45  37  76 SE3       30.10S
GRAND RAPIDS   SUNNY     41  32  70 SE7       30.12S
CRANE LAKE     SUNNY     37  34  87 CALM      30.13F
ORR            SUNNY     43  30  61 CALM      30.09S
COOK           SUNNY     41  34  75 CALM      30.11F
WALKER         FAIR      45  33  63 CALM      30.09S
$$
MNZ012-019>021-037-021400-
   Northeast Minnesota

CITY           SKY/WX    TMP DP  RH WIND       PRES   REMARKS
DULUTH         MOSUNNY   43  35  73 E5        30.12S
ELY            SUNNY     41  34  75 CALM      30.12F
HIBBING        SUNNY     38  33  82 CALM      30.12S
EVELETH        SUNNY     39  34  81 CALM      30.13F
DULUTH HARBOR  SUNNY     37  34  87 CALM      30.16S
TWO HARBORS    MOSUNNY   41  36  81 CALM      30.12S
SILVER BAY     MOSUNNY   39  36  87 CALM      30.11F
GRAND MARAIS     N/A     40  32  73 CALM      30.14F
G MARAIS ARPRT SUNNY     45  28  53 CALM      30.12F
$$
MNZ029>031-032-039>041-046>048-054>057-064-021400-
   West Central Minnesota

CITY           SKY/WX    TMP DP  RH WIND       PRES   REMARKS
FERGUS FALLS   CLOUDY    45  37  76 S6        30.07F
WHEATON        CLOUDY    46  39  76 CALM      30.10F
MORRIS         CLOUDY    48  37  66 W3        30.09S
ALEXANDRIA     SUNNY     50  34  54 SW6       30.10S
ELBOW LAKE     FAIR      45  35  68 CALM      30.10S
WADENA         MOSUNNY   43  36  75 CALM      30.08S
GLENWOOD       SUNNY     46  37  71 CALM      30.11S
APPLETON       CLOUDY    46  37  71 CALM      30.10S
BENSON         SUNNY     46  36  66 CALM      30.10F HAZE
ORTONVILLE     CLOUDY    45  34  65 W3        30.09F
MADISON        CLOUDY    46  36  66 W3        30.10S
WILLMAR        FAIR      46  41  81 CALM      30.12S
$$
MNZ033>034-036-042>043-049>051-058-059-021400-
   Central Minnesota

CITY           SKY/WX    TMP DP  RH WIND       PRES   REMARKS
ST CLOUD       SUNNY     43  36  76 CALM      30.12R
SAUK CENTRE    FAIR      41  36  81 CALM      30.11S
PAYNESVILLE    SUNNY     42  35  74 CALM      30.11F
AITKIN         SUNNY     45  36  70 CALM      30.10S
PINE RIVER     SUNNY     45  37  76 SE3       30.13F
BRAINERD       SUNNY     44  34  67 CALM      30.12R
STAPLES        SUNNY     43  34  70 SE5       30.09F
LONG PRAIRIE   FAIR      45  36  70 CALM      30.11S
LITTLE FALLS   SUNNY     43  34  70 CALM      30.11S
LITCHFIELD     SUNNY     48  45  87 CALM      30.12S
BUFFALO        MOSUNNY   45  37  73 CALM      30.13S
MAPLE LAKE     MOSUNNY   45  40  82 CALM      30.13S
HUTCHINSON     CLOUDY    46  41  85 CALM      30.13S
$$
MNZ037-044-045-052-053-021400-
   East Central Minnesota

CITY           SKY/WX    TMP DP  RH WIND       PRES   REMARKS
PRINCETON      SUNNY     45  37  76 CALM      30.12S
MORA           SUNNY     37  36  93 CALM      30.14S
CAMBRIDGE      MOSUNNY   45  36  70 CALM      30.10F
RUSH CITY      SUNNY     42  35  76 CALM      30.13S
MOOSE LAKE     MOSUNNY   37  34  87 CALM      30.12R
HINCKLEY       FAIR      41  36  81 CALM      30.13S
CLOQUET        SUNNY     43  34  70 E3        30.12S
MCGREGOR       SUNNY     41  36  81 CALM      30.12F
$$
MNZ071>073-080-081-089-090-097-098-021400-
   Southwest Minnesota

CITY           SKY/WX    TMP DP  RH WIND       PRES   REMARKS
MONTEVIDEO     SUNNY     50  37  62 CALM      30.12F
GRANITE FALLS  SUNNY     46  37  70 CALM      30.13S
CANBY          SUNNY     53  42  66 NW6       30.12S
MARSHALL       SUNNY     47  38  71 W3        30.12R
REDWOOD FALLS  MOSUNNY   48  37  65 CALM      30.12R
OLIVIA         SUNNY     46  36  66 CALM      30.11S
PIPESTONE      SUNNY     45  37  76 CALM      30.11F
WINDOM         SUNNY     45  37  76 CALM      30.12S
WORTHINGTON    SUNNY     45  39  79 W3        30.13S
JACKSON        SUNNY     46  37  71 CALM      30.12S
TRACY          SUNNY     50  39  64 SW3       30.12S
SLAYTON        SUNNY     45  40  82 CALM      30.13S
$$
MNZ065>067-074>077-082>085-091>093-021400-
   South Central Minnesota

CITY           SKY/WX    TMP DP  RH WIND       PRES   REMARKS
MANKATO        SUNNY     45  37  76 NW5       30.12S
NEW ULM        MOSUNNY   45  37  76 CALM      30.12S
ST JAMES       MOSUNNY   41  36  81 CALM      30.13S
FAIRMONT       SUNNY     46  37  71 NW6       30.11S
GLENCOE        SUNNY     46  39  78 CALM      30.12R
FARIBAULT      SUNNY     45  39  81 CALM      30.11S
OWATONNA       SUNNY     45  39  81 CALM      30.11S
WASECA         SUNNY     43  37  81 CALM      30.12S
ALBERT LEA     SUNNY     43  43 100 CALM      30.10F
$$
MNZ078>079-086>088-094>096-021400-
   Southeast Minnesota

CITY           SKY/WX    TMP DP  RH WIND       PRES   REMARKS
ROCHESTER      SUNNY     46  42  86 S6        30.12R
RED WING       SUNNY     46  39  76 CALM      30.10F
STANTON        SUNNY     43  38  83 CALM      30.10F
DODGE CENTER   SUNNY     46  43  87 CALM      30.10S
WINONA         SUNNY     43  43 100 CALM      30.13S
AUSTIN         MOSUNNY   45  43  93 CALM      30.10F
PRESTON        MOSUNNY   46  39  78 SE5       30.12S
$$
ABBREVIATIONS USED IN REMARKS
   TC - TEMPERATURES IN CELSIUS
  WCI - WIND CHILL INDEX
   HX - HEAT INDEX
  VSB - VISIBILITY
$$



USA.gov is the U.S. government's official web portal to all federal, state and local government web resources and services.